Location: Bletchingley
(51.2333°N, 0.1000°W)
Time: 16:12:51
(UTC+00:00)

Cosmos 1300 Rocket - Pass Details

Date: 18 September 2020
Orbit: 601 x 627 km, 82.5° (Epoch: 30 October)

Event Time Altitude Azimuth Distance (km) Brightness Sun altitude
Rises 19:54:26 0° 194° (SSW) 2,879 6.9 -17.1°
Reaches altitude 10° 19:56:39 10° 196° (SSW) 1,982 6.1 -17.4°
Maximum altitude 20:01:03 73° 282° (WNW) 657 3.8 -18.0°
Drops below altitude 10° 20:05:30 10° 7° (N) 2,012 6.4 -18.6°
Sets 20:07:46 0° 10° (N) 2,926 7.3 -18.9°
